Miscellaneous Local Product
Issued by NWS Hastings, NE

Home | Current Version | Previous Version | Graphics & Text | Print | Product List | Glossary On
Versions: 1 2 3 4 5 6 7 8 9 10 11 12 13 14 15 16 17 18 19 20 21 22 23 24 25 26 27 28 29 30 31 32 33 34 35 36 37 38 39 40 41 42 43 44 45 46 47 48 49 50
000
AXUS43 KGID 291702
MISGRI

GID CWA HOURLY WEATHER ROUNDUP
NATIONAL WEATHER SERVICE HASTINGS NE
1100 AM CST THU JAN 29 2015

NOTE: "FAIR" INDICATES FEW OR NO CLOUDS BELOW 12,000 FEET WITH NO
SIGNIFICANT WEATHER AND/OR OBSTRUCTIONS TO VISIBILITY.

...SOUTH CENTRAL NEBRASKA...

CITY           SKY/WX    TMP DP  RH WIND       PRES   REMARKS
GRAND ISLAND   CLOUDY    38  25  59 N26G35    30.45R WCI  26
HASTINGS       CLOUDY    39  24  55 N24G31    30.46R WCI  28
KEARNEY        CLOUDY    39  25  56 N22       30.47R WCI  29
ORD            CLOUDY    38  24  57 N18G29    30.45R WCI  28
YORK           PTSUNNY   37  27  65 N17G29    30.43R WCI  28
AURORA         CLOUDY    38  26  63 N22G29    30.44R WCI  27
LEXINGTON      PTSUNNY   40  25  56 N20G25    30.48R WCI  30
HOLDREGE       MOSUNNY   39  24  56 N15       30.46R WCI  30
HEBRON         CLOUDY    40  25  54 N18G29    30.44R WCI  31

...NEBRASKA PANHANDLE...

CITY           SKY/WX    TMP DP  RH WIND       PRES   REMARKS
CHADRON        SUNNY     36  27  69 NW13      30.51S WCI  27
ALLIANCE       SUNNY     34  25  69 N10       30.48R WCI  26
SCOTTSBLUFF    SUNNY     37  23  56 NW14      30.51R WCI  28
SIDNEY         SUNNY     39  20  46 N20       30.49R WCI  29

...WESTERN AND NORTH CENTRAL NEBRASKA...

CITY           SKY/WX    TMP DP  RH WIND       PRES   REMARKS
VALENTINE      SUNNY     37  23  56 NW15G25   30.48R WCI  28
AINSWORTH      MOSUNNY   36  23  59 NW17G23   30.45S WCI  26
ONEILL         CLOUDY    37  28  69 NW17G25   30.44R WCI  28
BROKEN BOW     PTSUNNY   37  24  59 N23G30    30.46R WCI  26
IMPERIAL       SUNNY     36  24  62 N17       30.52R WCI  26
NORTH PLATTE   SUNNY     37  24  59 N16G22    30.49R WCI  28
MCCOOK         SUNNY     40  24  53 N18       30.51R WCI  31

...EASTERN NEBRASKA...

CITY           SKY/WX    TMP DP  RH WIND       PRES   REMARKS
NORFOLK        CLOUDY    36  28  73 NW16      30.41R WCI  26
SO SIOUX CITY  CLOUDY    35  27  72 NW22G32   30.39R WCI  23
TEKAMAH        CLOUDY    37  26  64 NW25      30.40R WCI  25
COLUMBUS       CLOUDY    37  25  60 N22       30.44R WCI  27
ALBION         CLOUDY    37  25  62 N20G30    30.42R WCI  27
OMAHA EPPLEY   CLOUDY    37  26  64 N23G31    30.38R WCI  26
OFFUTT AFB     CLOUDY    38  26  61 N16G33    30.38R WCI  29
MILLARD        CLOUDY    37  27  65 NW20G30   30.39R WCI  27
LINCOLN        CLOUDY    39  28  64 N26G36    30.42R WCI  28
NEBRASKA CITY  CLOUDY    38  24  57 N23G36    30.36R WCI  27
BEATRICE       CLOUDY    39  28  63 N31G38    30.41R WCI  27
FALLS CITY     CLOUDY    39  27  62 NW21G38   30.36R WCI  29

...NORTHERN KANSAS...

CITY           SKY/WX    TMP DP  RH WIND       PRES   REMARKS
GOODLAND       SUNNY     37  28  70 N17       30.51R WCI  27
HILL CITY      MOSUNNY   41  25  53 N20G28    30.50R
NORTON         SUNNY     39  21  48 NW18      30.48R WCI  30
PHILLIPSBURG   SUNNY     45  25  45 NW18G25   30.49R
SMITH CENTER   SUNNY     41  25  52 N22G30    30.47R
BELOIT         CLOUDY    43  25  49 NW23G32   30.47R
HAYS           SUNNY     41  21  45 N22G29    30.49R
RUSSELL        SUNNY     42  26  53 N21G29    30.46R
CONCORDIA      MOSUNNY   42  26  53 N22G35    30.44R
SALINA         CLOUDY    44  26  49 N30G36    30.46R
TOPEKA         CLOUDY    42  27  55 N22G38    30.39R



USA.gov is the U.S. government's official web portal to all federal, state and local government web resources and services.